Time,TemperatureF,DewpointF,PressureIn,WindDirection,WindDirectionDegrees,WindSpeedMPH,WindSpeedGustMPH,Humidity,HourlyPrecipIn,Conditions,Clouds,dailyrainin,SoftwareType,DateUTC
2013-04-24 00:00:00,58.4,52.6,29.95,SSE,152,1.0,1.0,81,0.00,NA,NA,-99.99,VWS Version 10.39,2013-04-24 07:00:00,
2013-04-24 00:05:00,58.3,52.5,29.95,SSE,150,1.0,1.0,81,0.00,NA,NA,-99.99,VWS Version 10.39,2013-04-24 07:05:00,
2013-04-24 00:10:00,58.3,52.5,29.95,SSE,159,1.0,1.0,81,0.00,NA,NA,-99.99,VWS Version 10.39,2013-04-24 07:10:00,
2013-04-24 00:15:00,58.3,52.5,29.95,SSE,150,2.0,3.0,81,0.00,NA,NA,-99.99,VWS Version 10.39,2013-04-24 07:15:00,
2013-04-24 00:20:00,58.3,52.5,29.96,ESE,116,3.0,3.0,81,0.00,NA,NA,-99.99,VWS Version 10.39,2013-04-24 07:20:00,
2013-04-24 00:25:00,58.4,52.6,29.95,SSE,148,0.0,2.0,81,0.00,NA,NA,-99.99,VWS Version 10.39,2013-04-24 07:25:00,
2013-04-24 00:30:00,58.4,52.6,29.95,SE,144,0.0,2.0,81,0.00,NA,NA,-99.99,VWS Version 10.39,2013-04-24 07:30:00,
2013-04-24 00:35:00,58.4,52.6,29.95,SE,143,1.0,2.0,81,0.00,NA,NA,-99.99,VWS Version 10.39,2013-04-24 07:35:00,
2013-04-24 00:40:00,58.3,52.5,29.95,SE,145,4.0,4.0,81,0.00,NA,NA,-99.99,VWS Version 10.39,2013-04-24 07:40:00,
2013-04-24 00:45:00,58.3,52.5,29.95,SE,144,2.0,2.0,81,0.00,NA,NA,-99.99,VWS Version 10.39,2013-04-24 07:45:00,
2013-04-24 00:50:00,58.3,52.5,29.95,SE,139,1.0,1.0,81,0.00,NA,NA,-99.99,VWS Version 10.39,2013-04-24 07:50:00,
2013-04-24 00:55:00,58.2,52.4,29.95,SE,135,5.0,5.0,81,0.00,NA,NA,-99.99,VWS Version 10.39,2013-04-24 07:55:00,
2013-04-24 01:00:00,58.2,52.4,29.95,SE,134,3.0,3.0,81,0.00,NA,NA,-99.99,VWS Version 10.39,2013-04-24 08:00:00,
2013-04-24 01:05:00,58.1,52.3,29.95,SE,133,3.0,4.0,81,0.00,NA,NA,-99.99,VWS Version 10.39,2013-04-24 08:05:00,
2013-04-24 01:10:00,58.2,52.4,29.95,SE,142,4.0,4.0,81,0.00,NA,NA,-99.99,VWS Version 10.39,2013-04-24 08:10:00,
2013-04-24 01:15:00,58.2,52.4,29.94,SE,138,5.0,6.0,81,0.00,NA,NA,-99.99,VWS Version 10.39,2013-04-24 08:15:00,
2013-04-24 01:20:00,58.2,52.4,29.94,SE,140,4.0,4.0,81,0.00,NA,NA,-99.99,VWS Version 10.39,2013-04-24 08:20:00,
2013-04-24 01:25:00,58.2,52.4,29.94,SE,138,6.0,6.0,81,0.00,NA,NA,-99.99,VWS Version 10.39,2013-04-24 08:25:00,
2013-04-24 01:30:00,58.2,52.4,29.94,SSE,150,2.0,4.0,81,0.00,NA,NA,-99.99,VWS Version 10.39,2013-04-24 08:30:00,
2013-04-24 01:35:00,58.2,52.4,29.94,SSE,148,5.0,5.0,81,0.00,NA,NA,-99.99,VWS Version 10.39,2013-04-24 08:35:00,
2013-04-24 01:40:00,58.2,52.4,29.94,SE,130,3.0,3.0,81,0.00,NA,NA,-99.99,VWS Version 10.39,2013-04-24 08:40:00,
2013-04-24 01:45:00,58.3,52.5,29.93,SE,132,3.0,3.0,81,0.00,NA,NA,-99.99,VWS Version 10.39,2013-04-24 08:45:00,
2013-04-24 01:50:00,58.3,52.5,29.94,ESE,111,2.0,3.0,81,0.00,NA,NA,-99.99,VWS Version 10.39,2013-04-24 08:50:00,
2013-04-24 01:55:00,58.3,52.5,29.94,ESE,111,3.0,3.0,81,0.00,NA,NA,-99.99,VWS Version 10.39,2013-04-24 08:55:00,
2013-04-24 02:00:00,58.3,52.5,29.94,SE,139,5.0,5.0,81,0.00,NA,NA,-99.99,VWS Version 10.39,2013-04-24 09:00:00,
2013-04-24 02:10:00,58.3,52.5,29.93,SSE,148,3.0,3.0,81,0.00,NA,NA,-99.99,VWS Version 10.39,2013-04-24 09:10:00,
2013-04-24 02:15:00,58.3,52.5,29.93,SSE,161,1.0,4.0,81,0.00,NA,NA,-99.99,VWS Version 10.39,2013-04-24 09:15:00,
2013-04-24 02:20:00,58.2,52.4,29.93,SSE,158,1.0,1.0,81,0.00,NA,NA,-99.99,VWS Version 10.39,2013-04-24 09:20:00,
2013-04-24 02:25:00,58.2,52.4,29.93,SSE,148,1.0,1.0,81,0.00,NA,NA,-99.99,VWS Version 10.39,2013-04-24 09:25:00,
2013-04-24 02:30:00,58.2,52.4,29.93,SSE,158,1.0,2.0,81,0.00,NA,NA,-99.99,VWS Version 10.39,2013-04-24 09:30:00,
2013-04-24 02:35:00,58.3,52.8,29.93,SSE,153,2.0,2.0,82,0.00,NA,NA,-99.99,VWS Version 10.39,2013-04-24 09:35:00,
2013-04-24 02:40:00,58.3,52.8,29.93,SSE,153,1.0,2.0,82,0.00,NA,NA,-99.99,VWS Version 10.39,2013-04-24 09:40:00,
2013-04-24 02:45:00,58.3,52.8,29.93,SSE,154,0.0,2.0,82,0.00,NA,NA,-99.99,VWS Version 10.39,2013-04-24 09:45:00,
2013-04-24 02:50:00,58.2,52.7,29.93,SSE,154,0.0,1.0,82,0.00,NA,NA,-99.99,VWS Version 10.39,2013-04-24 09:50:00,
2013-04-24 02:55:00,58.2,52.7,29.93,SSE,154,0.0,0.0,82,0.00,NA,NA,-99.99,VWS Version 10.39,2013-04-24 09:55:00,
2013-04-24 03:00:00,58.2,52.7,29.92,SSE,154,0.0,0.0,82,0.00,NA,NA,-99.99,VWS Version 10.39,2013-04-24 10:00:00,
2013-04-24 03:05:00,58.2,52.7,29.93,SSE,154,0.0,0.0,82,0.00,NA,NA,-99.99,VWS Version 10.39,2013-04-24 10:05:00,
2013-04-24 03:10:00,58.2,52.7,29.92,SSE,154,0.0,0.0,82,0.00,NA,NA,-99.99,VWS Version 10.39,2013-04-24 10:10:00,
2013-04-24 03:20:00,58.1,52.6,29.92,SSE,154,0.0,0.0,82,0.00,NA,NA,-99.99,VWS Version 10.39,2013-04-24 10:20:00,
2013-04-24 03:30:00,58.2,52.7,29.92,SSE,153,0.0,0.0,82,0.00,NA,NA,-99.99,VWS Version 10.39,2013-04-24 10:30:00,
2013-04-24 03:35:00,58.3,53.8,29.92,NNW,346,0.0,1.0,85,0.00,NA,NA,-99.99,VWS Version 10.39,2013-04-24 10:35:00,
2013-04-24 03:40:00,58.2,54.0,29.92,NNW,331,2.0,2.0,86,0.00,NA,NA,-99.99,VWS Version 10.39,2013-04-24 10:40:00,
2013-04-24 03:45:00,57.9,53.7,29.92,NNW,329,2.0,2.0,86,0.00,NA,NA,-99.99,VWS Version 10.39,2013-04-24 10:45:00,
2013-04-24 03:50:00,57.7,53.9,29.92,NNW,327,0.0,0.0,87,0.00,NA,NA,-99.99,VWS Version 10.39,2013-04-24 10:50:00,
2013-04-24 03:55:00,57.6,53.8,29.91,NNW,327,0.0,1.0,87,0.00,NA,NA,-99.99,VWS Version 10.39,2013-04-24 10:55:00,
2013-04-24 04:00:00,57.5,53.7,29.91,NNW,327,0.0,0.0,87,0.00,NA,NA,-99.99,VWS Version 10.39,2013-04-24 11:00:00,
2013-04-24 04:10:00,57.4,53.6,29.91,NNW,327,0.0,1.0,87,0.00,NA,NA,-99.99,VWS Version 10.39,2013-04-24 11:10:00,
2013-04-24 04:15:00,57.4,53.6,29.91,NNW,327,0.0,1.0,87,0.00,NA,NA,-99.99,VWS Version 10.39,2013-04-24 11:15:00,
2013-04-24 04:25:00,57.3,53.5,29.91,NNE,15,1.0,1.0,87,0.00,NA,NA,-99.99,VWS Version 10.39,2013-04-24 11:25:00,
2013-04-24 04:30:00,57.2,52.7,29.91,ESE,105,3.0,3.0,85,0.00,NA,NA,-99.99,VWS Version 10.39,2013-04-24 11:30:00,
2013-04-24 04:35:00,57.3,52.8,29.91,ENE,78,3.0,3.0,85,0.00,NA,NA,-99.99,VWS Version 10.39,2013-04-24 11:35:00,
2013-04-24 04:40:00,57.5,52.7,29.91,East,88,1.0,1.0,84,0.00,NA,NA,-99.99,VWS Version 10.39,2013-04-24 11:40:00,
2013-04-24 04:45:00,57.5,52.7,29.91,East,98,5.0,5.0,84,0.00,NA,NA,-99.99,VWS Version 10.39,2013-04-24 11:45:00,
2013-04-24 04:50:00,57.7,53.2,29.91,East,100,1.0,2.0,85,0.00,NA,NA,-99.99,VWS Version 10.39,2013-04-24 11:50:00,
2013-04-24 04:55:00,57.7,52.9,29.91,East,101,0.0,0.0,84,0.00,NA,NA,-99.99,VWS Version 10.39,2013-04-24 11:55:00,
2013-04-24 05:00:00,57.7,52.9,29.91,East,101,0.0,0.0,84,0.00,NA,NA,-99.99,VWS Version 10.39,2013-04-24 12:00:00,
2013-04-24 05:05:00,57.7,52.9,29.91,East,101,0.0,0.0,84,0.00,NA,NA,-99.99,VWS Version 10.39,2013-04-24 12:05:00,
2013-04-24 05:10:00,57.8,53.3,29.91,SE,140,1.0,2.0,85,0.00,NA,NA,-99.99,VWS Version 10.39,2013-04-24 12:10:00,
2013-04-24 05:15:00,57.8,53.3,29.91,SSE,153,1.0,1.0,85,0.00,NA,NA,-99.99,VWS Version 10.39,2013-04-24 12:15:00,
2013-04-24 05:20:00,57.9,53.7,29.91,South,180,0.0,0.0,86,0.00,NA,NA,-99.99,VWS Version 10.39,2013-04-24 12:20:00,
2013-04-24 05:25:00,57.8,53.3,29.91,South,180,0.0,1.0,85,0.00,NA,NA,-99.99,VWS Version 10.39,2013-04-24 12:25:00,
2013-04-24 05:30:00,57.6,52.8,29.91,SE,146,2.0,2.0,84,0.00,NA,NA,-99.99,VWS Version 10.39,2013-04-24 12:30:00,
2013-04-24 05:35:00,57.6,52.8,29.91,SE,126,0.0,3.0,84,0.00,NA,NA,-99.99,VWS Version 10.39,2013-04-24 12:35:00,
2013-04-24 05:40:00,57.6,52.8,29.91,ENE,74,2.0,3.0,84,0.00,NA,NA,-99.99,VWS Version 10.39,2013-04-24 12:40:00,
2013-04-24 05:45:00,57.5,52.7,29.91,East,95,2.0,2.0,84,0.00,NA,NA,-99.99,VWS Version 10.39,2013-04-24 12:45:00,
2013-04-24 05:50:00,57.5,52.7,29.91,East,84,0.0,2.0,84,0.00,NA,NA,-99.99,VWS Version 10.39,2013-04-24 12:50:00,
2013-04-24 05:55:00,57.6,52.8,29.91,ESE,109,1.0,3.0,84,0.00,NA,NA,-99.99,VWS Version 10.39,2013-04-24 12:55:00,
2013-04-24 08:15:00,58.0,52.9,29.94,ESE,115,3.0,4.0,83,0.00,NA,NA,-99.99,VWS Version 10.39,2013-04-24 15:15:00,
2013-04-24 08:20:00,58.1,53.0,29.95,ESE,119,3.0,3.0,83,0.00,NA,NA,-99.99,VWS Version 10.39,2013-04-24 15:20:00,
2013-04-24 08:25:00,58.2,53.1,29.95,ESE,107,2.0,4.0,83,0.00,NA,NA,-99.99,VWS Version 10.39,2013-04-24 15:25:00,
2013-04-24 08:30:00,58.3,52.8,29.94,East,94,1.0,2.0,82,0.00,NA,NA,-99.99,VWS Version 10.39,2013-04-24 15:30:00,
2013-04-24 08:35:00,58.4,52.9,29.94,ESE,115,4.0,5.0,82,0.00,NA,NA,-99.99,VWS Version 10.39,2013-04-24 15:35:00,
2013-04-24 08:40:00,58.5,53.0,29.94,SE,130,5.0,7.0,82,0.00,NA,NA,-99.99,VWS Version 10.39,2013-04-24 15:40:00,
2013-04-24 08:45:00,58.4,52.9,29.94,ESE,112,3.0,4.0,82,0.00,NA,NA,-99.99,VWS Version 10.39,2013-04-24 15:45:00,
2013-04-24 08:50:00,58.5,53.0,29.94,SE,124,5.0,5.0,82,0.00,NA,NA,-99.99,VWS Version 10.39,2013-04-24 15:50:00,
2013-04-24 08:55:00,58.5,53.0,29.94,East,83,5.0,6.0,82,0.00,NA,NA,-99.99,VWS Version 10.39,2013-04-24 15:55:00,
2013-04-24 09:00:00,58.6,52.8,29.94,East,90,5.0,5.0,81,0.00,NA,NA,-99.99,VWS Version 10.39,2013-04-24 16:00:00,
2013-04-24 09:05:00,58.6,52.8,29.94,ESE,105,8.0,8.0,81,0.00,NA,NA,-99.99,VWS Version 10.39,2013-04-24 16:05:00,
2013-04-24 09:10:00,58.5,52.7,29.94,East,86,3.0,5.0,81,0.00,NA,NA,-99.99,VWS Version 10.39,2013-04-24 16:10:00,
2013-04-24 09:15:00,58.5,52.7,29.94,ESE,120,1.0,1.0,81,0.00,NA,NA,-99.99,VWS Version 10.39,2013-04-24 16:15:00,
2013-04-24 09:20:00,58.6,52.8,29.95,SSE,154,1.0,3.0,81,0.00,NA,NA,-99.99,VWS Version 10.39,2013-04-24 16:20:00,
2013-04-24 09:25:00,58.7,52.6,29.95,SE,136,3.0,4.0,80,0.00,NA,NA,-99.99,VWS Version 10.39,2013-04-24 16:25:00,
2013-04-24 09:30:00,58.9,52.8,29.95,SSE,163,1.0,3.0,80,0.00,NA,NA,-99.99,VWS Version 10.39,2013-04-24 16:30:00,
2013-04-24 09:35:00,59.1,52.9,29.95,SSE,153,0.0,1.0,80,0.00,NA,NA,-99.99,VWS Version 10.39,2013-04-24 16:35:00,
2013-04-24 09:40:00,59.1,52.6,29.95,SSE,149,3.0,3.0,79,0.00,NA,NA,-99.99,VWS Version 10.39,2013-04-24 16:40:00,
2013-04-24 09:45:00,59.2,52.7,29.95,SE,138,3.0,5.0,79,0.00,NA,NA,-99.99,VWS Version 10.39,2013-04-24 16:45:00,
2013-04-24 09:50:00,59.2,52.7,29.95,SSE,158,2.0,3.0,79,0.00,NA,NA,-99.99,VWS Version 10.39,2013-04-24 16:50:00,
2013-04-24 09:55:00,59.4,53.2,29.95,South,179,1.0,1.0,80,0.00,NA,NA,-99.99,VWS Version 10.39,2013-04-24 16:55:00,
2013-04-24 10:00:00,59.5,53.0,29.96,SW,217,0.0,1.0,79,0.00,NA,NA,-99.99,VWS Version 10.39,2013-04-24 17:00:00,
2013-04-24 10:05:00,59.5,53.3,29.96,South,171,1.0,2.0,80,0.00,NA,NA,-99.99,VWS Version 10.39,2013-04-24 17:05:00,
2013-04-24 10:10:00,59.6,53.4,29.96,SSE,156,1.0,1.0,80,0.00,NA,NA,-99.99,VWS Version 10.39,2013-04-24 17:10:00,
2013-04-24 10:15:00,59.6,53.4,29.96,SW,217,1.0,1.0,80,0.00,NA,NA,-99.99,VWS Version 10.39,2013-04-24 17:15:00,
2013-04-24 10:20:00,59.5,53.3,29.96,SE,142,3.0,3.0,80,0.00,NA,NA,-99.99,VWS Version 10.39,2013-04-24 17:20:00,
2013-04-24 10:25:00,59.6,53.4,29.96,SSW,202,2.0,2.0,80,0.00,NA,NA,-99.99,VWS Version 10.39,2013-04-24 17:25:00,
2013-04-24 10:30:00,59.7,53.5,29.96,South,188,1.0,3.0,80,0.00,NA,NA,-99.99,VWS Version 10.39,2013-04-24 17:30:00,
2013-04-24 10:35:00,59.8,53.6,29.96,South,176,2.0,3.0,80,0.00,NA,NA,-99.99,VWS Version 10.39,2013-04-24 17:35:00,
2013-04-24 10:40:00,59.8,54.0,29.97,SSW,211,1.0,3.0,81,0.00,NA,NA,-99.99,VWS Version 10.39,2013-04-24 17:40:00,
2013-04-24 10:45:00,59.7,54.2,29.97,SSE,165,2.0,4.0,82,0.00,NA,NA,-99.99,VWS Version 10.39,2013-04-24 17:45:00,
2013-04-24 10:50:00,59.3,53.8,29.97,WNW,289,4.0,9.0,82,0.00,NA,NA,-99.99,VWS Version 10.39,2013-04-24 17:50:00,
2013-04-24 10:55:00,59.0,54.2,29.97,SW,216,2.0,3.0,84,0.00,NA,NA,-99.99,VWS Version 10.39,2013-04-24 17:55:00,
2013-04-24 11:00:00,58.9,54.4,29.97,WSW,242,6.0,7.0,85,0.00,NA,NA,-99.99,VWS Version 10.39,2013-04-24 18:00:00,
2013-04-24 11:05:00,58.5,54.3,29.97,SSW,199,3.0,4.0,86,0.00,NA,NA,-99.99,VWS Version 10.39,2013-04-24 18:05:00,
2013-04-24 11:10:00,58.2,54.4,29.97,SSW,211,1.0,4.0,87,0.00,NA,NA,-99.99,VWS Version 10.39,2013-04-24 18:10:00,
2013-04-24 11:15:00,57.8,54.3,29.97,WNW,290,3.0,4.0,88,0.00,NA,NA,-99.99,VWS Version 10.39,2013-04-24 18:15:00,
2013-04-24 11:20:00,57.6,54.4,29.97,South,169,0.0,3.0,89,0.00,NA,NA,-99.99,VWS Version 10.39,2013-04-24 18:20:00,
2013-04-24 11:25:00,57.5,54.3,29.97,WSW,246,2.0,5.0,89,0.00,NA,NA,-99.99,VWS Version 10.39,2013-04-24 18:25:00,
2013-04-24 11:30:00,57.2,54.0,29.97,SE,125,2.0,3.0,89,0.00,NA,NA,-99.99,VWS Version 10.39,2013-04-24 18:30:00,
2013-04-24 11:35:00,57.3,54.4,29.97,SW,229,3.0,7.0,90,0.00,NA,NA,-99.99,VWS Version 10.39,2013-04-24 18:35:00,
2013-04-24 11:40:00,57.2,54.3,29.97,WSW,257,2.0,3.0,90,0.00,NA,NA,-99.99,VWS Version 10.39,2013-04-24 18:40:00,
2013-04-24 11:45:00,57.1,54.2,29.97,WSW,250,5.0,7.0,90,0.00,NA,NA,-99.99,VWS Version 10.39,2013-04-24 18:45:00,
2013-04-24 11:50:00,57.1,54.2,29.97,South,180,2.0,2.0,90,0.00,NA,NA,-99.99,VWS Version 10.39,2013-04-24 18:50:00,
2013-04-24 11:55:00,57.1,54.2,29.97,NNW,336,1.0,4.0,90,0.00,NA,NA,-99.99,VWS Version 10.39,2013-04-24 18:55:00,
2013-04-24 12:00:00,57.1,54.2,29.97,SW,214,3.0,7.0,90,0.00,NA,NA,-99.99,VWS Version 10.39,2013-04-24 19:00:00,
2013-04-24 12:05:00,57.0,54.1,29.96,WSW,256,3.0,7.0,90,0.00,NA,NA,-99.99,VWS Version 10.39,2013-04-24 19:05:00,
2013-04-24 12:10:00,56.8,53.6,29.97,WSW,250,5.0,5.0,89,0.00,NA,NA,-99.99,VWS Version 10.39,2013-04-24 19:10:00,
2013-04-24 12:15:00,56.9,53.7,29.97,SSW,210,2.0,3.0,89,0.00,NA,NA,-99.99,VWS Version 10.39,2013-04-24 19:15:00,
2013-04-24 12:20:00,57.0,53.8,29.97,South,185,2.0,4.0,89,0.00,NA,NA,-99.99,VWS Version 10.39,2013-04-24 19:20:00,
2013-04-24 12:25:00,57.0,53.5,29.97,SW,217,4.0,6.0,88,0.00,NA,NA,-99.99,VWS Version 10.39,2013-04-24 19:25:00,
2013-04-24 12:30:00,57.0,53.5,29.97,SSW,200,4.0,5.0,88,0.00,NA,NA,-99.99,VWS Version 10.39,2013-04-24 19:30:00,
2013-04-24 12:35:00,57.1,53.6,29.97,West,278,4.0,6.0,88,0.00,NA,NA,-99.99,VWS Version 10.39,2013-04-24 19:35:00,
2013-04-24 12:40:00,57.1,53.6,29.97,WSW,250,3.0,4.0,88,0.00,NA,NA,-99.99,VWS Version 10.39,2013-04-24 19:40:00,
2013-04-24 12:45:00,57.1,53.6,29.97,NNE,19,1.0,5.0,88,0.00,NA,NA,-99.99,VWS Version 10.39,2013-04-24 19:45:00,
2013-04-24 12:50:00,57.2,53.7,29.97,SW,236,0.0,1.0,88,0.00,NA,NA,-99.99,VWS Version 10.39,2013-04-24 19:50:00,
2013-04-24 12:55:00,57.3,53.5,29.97,WSW,245,5.0,5.0,87,0.00,NA,NA,-99.99,VWS Version 10.39,2013-04-24 19:55:00,
2013-04-24 13:00:00,57.3,53.5,29.97,WNW,283,4.0,5.0,87,0.00,NA,NA,-99.99,VWS Version 10.39,2013-04-24 20:00:00,
2013-04-24 13:05:00,57.5,53.3,29.97,WSW,251,4.0,7.0,86,0.00,NA,NA,-99.99,VWS Version 10.39,2013-04-24 20:05:00,
2013-04-24 13:10:00,57.5,53.3,29.97,West,262,4.0,4.0,86,0.00,NA,NA,-99.99,VWS Version 10.39,2013-04-24 20:10:00,
2013-04-24 13:15:00,57.6,53.1,29.97,WNW,300,1.0,1.0,85,0.00,NA,NA,-99.99,VWS Version 10.39,2013-04-24 20:15:00,
2013-04-24 13:20:00,57.7,53.2,29.97,WNW,296,2.0,2.0,85,0.00,NA,NA,-99.99,VWS Version 10.39,2013-04-24 20:20:00,
2013-04-24 13:25:00,57.8,53.0,29.97,South,181,5.0,5.0,84,0.00,NA,NA,-99.99,VWS Version 10.39,2013-04-24 20:25:00,
2013-04-24 13:30:00,57.9,53.1,29.97,SW,217,0.0,1.0,84,0.00,NA,NA,-99.99,VWS Version 10.39,2013-04-24 20:30:00,
2013-04-24 13:35:00,58.1,53.0,29.97,West,270,3.0,3.0,83,0.00,NA,NA,-99.99,VWS Version 10.39,2013-04-24 20:35:00,
2013-04-24 13:40:00,58.2,53.4,29.97,West,273,1.0,1.0,84,0.00,NA,NA,-99.99,VWS Version 10.39,2013-04-24 20:40:00,
2013-04-24 13:45:00,58.3,52.8,29.96,SW,235,2.0,2.0,82,0.00,NA,NA,-99.99,VWS Version 10.39,2013-04-24 20:45:00,
2013-04-24 13:50:00,58.5,53.0,29.97,NW,324,2.0,3.0,82,0.00,NA,NA,-99.99,VWS Version 10.39,2013-04-24 20:50:00,
2013-04-24 13:55:00,58.5,53.4,29.96,WNW,296,4.0,4.0,83,0.00,NA,NA,-99.99,VWS Version 10.39,2013-04-24 20:55:00,
2013-04-24 14:00:00,58.5,53.0,29.96,WSW,240,2.0,4.0,82,0.00,NA,NA,-99.99,VWS Version 10.39,2013-04-24 21:00:00,
2013-04-24 14:10:00,59.4,53.2,29.96,WNW,284,1.0,3.0,80,0.00,NA,NA,-99.99,VWS Version 10.39,2013-04-24 21:10:00,
2013-04-24 14:15:00,60.1,53.2,29.95,WSW,258,2.0,3.0,78,0.00,NA,NA,-99.99,VWS Version 10.39,2013-04-24 21:15:00,
2013-04-24 14:20:00,60.6,53.0,29.95,WNW,295,4.0,4.0,76,0.00,NA,NA,-99.99,VWS Version 10.39,2013-04-24 21:20:00,
2013-04-24 14:25:00,60.8,52.8,29.95,NNW,336,0.0,0.0,75,0.00,NA,NA,-99.99,VWS Version 10.39,2013-04-24 21:25:00,
2013-04-24 14:30:00,61.2,52.5,29.95,West,277,0.0,0.0,73,0.00,NA,NA,-99.99,VWS Version 10.39,2013-04-24 21:30:00,
2013-04-24 14:35:00,61.6,52.9,29.95,SW,219,1.0,1.0,73,0.00,NA,NA,-99.99,VWS Version 10.39,2013-04-24 21:35:00,
2013-04-24 14:40:00,61.8,52.7,29.95,WSW,241,0.0,2.0,72,0.00,NA,NA,-99.99,VWS Version 10.39,2013-04-24 21:40:00,
2013-04-24 14:45:00,61.7,53.0,29.95,West,261,1.0,2.0,73,0.00,NA,NA,-99.99,VWS Version 10.39,2013-04-24 21:45:00,
2013-04-24 14:50:00,61.4,53.0,29.95,SW,227,1.0,1.0,74,0.00,NA,NA,-99.99,VWS Version 10.39,2013-04-24 21:50:00,
2013-04-24 14:55:00,61.4,53.4,29.95,South,187,1.0,2.0,75,0.00,NA,NA,-99.99,VWS Version 10.39,2013-04-24 21:55:00,
2013-04-24 15:00:00,61.6,53.6,29.95,NW,304,1.0,2.0,75,0.00,NA,NA,-99.99,VWS Version 10.39,2013-04-24 22:00:00,
2013-04-24 15:05:00,61.3,52.6,29.95,West,264,3.0,4.0,73,0.00,NA,NA,-99.99,VWS Version 10.39,2013-04-24 22:05:00,
2013-04-24 15:10:00,60.9,52.9,29.95,West,270,0.0,0.0,75,0.00,NA,NA,-99.99,VWS Version 10.39,2013-04-24 22:10:00,
2013-04-24 15:15:00,60.9,52.6,29.95,NW,323,1.0,2.0,74,0.00,NA,NA,-99.99,VWS Version 10.39,2013-04-24 22:15:00,
2013-04-24 15:20:00,61.2,53.2,29.95,SSW,213,0.0,1.0,75,0.00,NA,NA,-99.99,VWS Version 10.39,2013-04-24 22:20:00,
2013-04-24 15:25:00,61.3,53.0,29.95,WSW,242,0.0,2.0,74,0.00,NA,NA,-99.99,VWS Version 10.39,2013-04-24 22:25:00,
2013-04-24 15:30:00,61.1,52.4,29.94,West,259,2.0,2.0,73,0.00,NA,NA,-99.99,VWS Version 10.39,2013-04-24 22:30:00,
2013-04-24 15:35:00,60.9,52.6,29.94,WNW,290,1.0,1.0,74,0.00,NA,NA,-99.99,VWS Version 10.39,2013-04-24 22:35:00,
2013-04-24 15:40:00,60.9,52.2,29.94,SSE,151,0.0,1.0,73,0.00,NA,NA,-99.99,VWS Version 10.39,2013-04-24 22:40:00,
2013-04-24 15:45:00,61.1,52.0,29.94,SSE,161,2.0,2.0,72,0.00,NA,NA,-99.99,VWS Version 10.39,2013-04-24 22:45:00,
2013-04-24 15:50:00,60.9,51.8,29.94,SSW,194,0.0,1.0,72,0.00,NA,NA,-99.99,VWS Version 10.39,2013-04-24 22:50:00,
2013-04-24 15:55:00,61.2,51.7,29.94,South,184,3.0,4.0,71,0.00,NA,NA,-99.99,VWS Version 10.39,2013-04-24 22:55:00,
2013-04-24 16:00:00,61.2,52.1,29.94,SW,215,1.0,2.0,72,0.00,NA,NA,-99.99,VWS Version 10.39,2013-04-24 23:00:00,
2013-04-24 16:05:00,61.1,52.0,29.94,SSW,194,3.0,5.0,72,0.00,NA,NA,-99.99,VWS Version 10.39,2013-04-24 23:05:00,
2013-04-24 16:10:00,60.8,52.1,29.93,SW,227,2.0,4.0,73,0.00,NA,NA,-99.99,VWS Version 10.39,2013-04-24 23:10:00,
2013-04-24 16:15:00,60.6,52.6,29.93,NNW,336,2.0,3.0,75,0.00,NA,NA,-99.99,VWS Version 10.39,2013-04-24 23:15:00,
2013-04-24 16:20:00,61.1,52.8,29.93,South,174,2.0,3.0,74,0.00,NA,NA,-99.99,VWS Version 10.39,2013-04-24 23:20:00,
2013-04-24 16:25:00,61.4,52.7,29.93,West,279,1.0,1.0,73,0.00,NA,NA,-99.99,VWS Version 10.39,2013-04-24 23:25:00,
2013-04-24 16:30:00,61.7,52.6,29.93,SSW,195,3.0,3.0,72,0.00,NA,NA,-99.99,VWS Version 10.39,2013-04-24 23:30:00,
2013-04-24 16:35:00,61.6,52.5,29.93,West,263,1.0,1.0,72,0.00,NA,NA,-99.99,VWS Version 10.39,2013-04-24 23:35:00,
2013-04-24 16:40:00,61.2,52.5,29.94,WSW,256,1.0,2.0,73,0.00,NA,NA,-99.99,VWS Version 10.39,2013-04-24 23:40:00,
2013-04-24 16:45:00,61.0,52.7,29.94,WSW,257,2.0,3.0,74,0.00,NA,NA,-99.99,VWS Version 10.39,2013-04-24 23:45:00,
2013-04-24 16:50:00,60.7,51.6,29.93,West,266,0.0,1.0,72,0.00,NA,NA,-99.99,VWS Version 10.39,2013-04-24 23:50:00,
2013-04-24 16:55:00,60.7,52.4,29.94,SSE,161,2.0,3.0,74,0.00,NA,NA,-99.99,VWS Version 10.39,2013-04-24 23:55:00,
2013-04-24 17:00:00,60.7,52.0,29.94,South,186,1.0,1.0,73,0.00,NA,NA,-99.99,VWS Version 10.39,2013-04-25 00:00:00,
2013-04-24 17:10:00,60.6,51.2,29.93,SE,126,2.0,2.0,71,0.00,NA,NA,-99.99,VWS Version 10.39,2013-04-25 00:10:00,
2013-04-24 17:15:00,60.7,51.2,29.93,SSW,195,0.0,1.0,71,0.00,NA,NA,-99.99,VWS Version 10.39,2013-04-25 00:15:00,
2013-04-24 17:20:00,60.9,51.5,29.93,SSW,194,1.0,2.0,71,0.00,NA,NA,-99.99,VWS Version 10.39,2013-04-25 00:20:00,
2013-04-24 17:25:00,61.1,51.2,29.93,SE,144,0.0,0.0,70,0.00,NA,NA,-99.99,VWS Version 10.39,2013-04-25 00:25:00,
2013-04-24 17:30:00,61.1,50.9,29.93,SE,141,3.0,3.0,69,0.00,NA,NA,-99.99,VWS Version 10.39,2013-04-25 00:30:00,
2013-04-24 17:35:00,61.2,51.0,29.93,SSE,150,1.0,1.0,69,0.00,NA,NA,-99.99,VWS Version 10.39,2013-04-25 00:35:00,
2013-04-24 17:40:00,61.3,51.1,29.93,SSE,160,1.0,1.0,69,0.00,NA,NA,-99.99,VWS Version 10.39,2013-04-25 00:40:00,
2013-04-24 17:45:00,61.0,50.8,29.94,SW,236,0.0,2.0,69,0.00,NA,NA,-99.99,VWS Version 10.39,2013-04-25 00:45:00,
2013-04-24 17:50:00,60.7,50.9,29.94,SSW,200,1.0,2.0,70,0.00,NA,NA,-99.99,VWS Version 10.39,2013-04-25 00:50:00,
2013-04-24 17:55:00,60.5,51.1,29.94,WSW,237,2.0,2.0,71,0.00,NA,NA,-99.99,VWS Version 10.39,2013-04-25 00:55:00,
2013-04-24 18:00:00,60.4,50.6,29.94,SSW,206,1.0,1.0,70,0.00,NA,NA,-99.99,VWS Version 10.39,2013-04-25 01:00:00,
2013-04-24 18:05:00,60.2,50.4,29.94,SSW,207,1.0,2.0,70,0.00,NA,NA,-99.99,VWS Version 10.39,2013-04-25 01:05:00,
2013-04-24 18:10:00,60.0,51.0,29.94,South,191,0.0,0.0,72,0.00,NA,NA,-99.99,VWS Version 10.39,2013-04-25 01:10:00,
2013-04-24 18:15:00,59.9,49.7,29.94,South,178,1.0,1.0,69,0.00,NA,NA,-99.99,VWS Version 10.39,2013-04-25 01:15:00,
2013-04-24 18:20:00,60.0,50.2,29.94,South,176,0.0,1.0,70,0.00,NA,NA,-99.99,VWS Version 10.39,2013-04-25 01:20:00,
2013-04-24 18:25:00,60.2,49.6,29.94,South,176,1.0,1.0,68,0.00,NA,NA,-99.99,VWS Version 10.39,2013-04-25 01:25:00,
2013-04-24 18:30:00,60.2,49.6,29.94,South,177,0.0,0.0,68,0.00,NA,NA,-99.99,VWS Version 10.39,2013-04-25 01:30:00,
2013-04-24 18:35:00,60.2,49.6,29.94,WSW,240,0.0,1.0,68,0.00,NA,NA,-99.99,VWS Version 10.39,2013-04-25 01:35:00,
2013-04-24 18:40:00,60.2,49.2,29.94,WSW,243,1.0,2.0,67,0.00,NA,NA,-99.99,VWS Version 10.39,2013-04-25 01:40:00,
2013-04-24 18:45:00,60.0,49.4,29.94,SW,234,0.0,1.0,68,0.00,NA,NA,-99.99,VWS Version 10.39,2013-04-25 01:45:00,
2013-04-24 18:50:00,60.0,49.8,29.94,SW,221,0.0,0.0,69,0.00,NA,NA,-99.99,VWS Version 10.39,2013-04-25 01:50:00,
2013-04-24 18:55:00,60.0,50.2,29.93,SW,225,0.0,2.0,70,0.00,NA,NA,-99.99,VWS Version 10.39,2013-04-25 01:55:00,
2013-04-24 19:00:00,60.0,50.6,29.93,WSW,257,1.0,1.0,71,0.00,NA,NA,-99.99,VWS Version 10.39,2013-04-25 02:00:00,
2013-04-24 19:10:00,59.7,49.9,29.93,WSW,257,0.0,0.0,70,0.00,NA,NA,-99.99,VWS Version 10.39,2013-04-25 02:10:00,
2013-04-24 19:15:00,59.7,50.3,29.94,WSW,257,0.0,1.0,71,0.00,NA,NA,-99.99,VWS Version 10.39,2013-04-25 02:15:00,
2013-04-24 19:20:00,59.7,50.3,29.94,WSW,257,0.0,0.0,71,0.00,NA,NA,-99.99,VWS Version 10.39,2013-04-25 02:20:00,
2013-04-24 19:25:00,59.6,50.6,29.94,WSW,257,0.0,0.0,72,0.00,NA,NA,-99.99,VWS Version 10.39,2013-04-25 02:25:00,
2013-04-24 19:30:00,59.6,50.6,29.94,WSW,257,0.0,1.0,72,0.00,NA,NA,-99.99,VWS Version 10.39,2013-04-25 02:30:00,
2013-04-24 19:35:00,59.5,50.8,29.94,WSW,257,0.0,1.0,73,0.00,NA,NA,-99.99,VWS Version 10.39,2013-04-25 02:35:00,
2013-04-24 19:40:00,59.4,50.8,29.94,WSW,257,0.0,1.0,73,0.00,NA,NA,-99.99,VWS Version 10.39,2013-04-25 02:40:00,
2013-04-24 19:45:00,59.3,50.7,29.94,WSW,257,1.0,1.0,73,0.00,NA,NA,-99.99,VWS Version 10.39,2013-04-25 02:45:00,
2013-04-24 19:50:00,59.1,50.8,29.94,West,265,0.0,0.0,74,0.00,NA,NA,-99.99,VWS Version 10.39,2013-04-25 02:50:00,
2013-04-24 19:55:00,59.1,50.8,29.95,West,265,2.0,2.0,74,0.00,NA,NA,-99.99,VWS Version 10.39,2013-04-25 02:55:00,
2013-04-24 20:00:00,59.0,50.7,29.95,SSW,205,0.0,1.0,74,0.00,NA,NA,-99.99,VWS Version 10.39,2013-04-25 03:00:00,
2013-04-24 20:05:00,59.0,51.1,29.95,SSW,207,1.0,1.0,75,0.00,NA,NA,-99.99,VWS Version 10.39,2013-04-25 03:05:00,
2013-04-24 20:10:00,59.0,51.8,29.95,SSW,194,1.0,2.0,77,0.01,NA,NA,-99.99,VWS Version 10.39,2013-04-25 03:10:00,
2013-04-24 20:15:00,58.9,52.1,29.95,SW,215,0.0,1.0,78,0.01,NA,NA,-99.99,VWS Version 10.39,2013-04-25 03:15:00,
2013-04-24 20:20:00,58.6,52.1,29.95,SW,215,0.0,0.0,79,0.01,NA,NA,-99.99,VWS Version 10.39,2013-04-25 03:20:00,
2013-04-24 20:25:00,58.5,52.4,29.96,SW,214,0.0,1.0,80,0.01,NA,NA,-99.99,VWS Version 10.39,2013-04-25 03:25:00,
2013-04-24 20:30:00,58.3,52.2,29.96,SW,214,0.0,0.0,80,0.01,NA,NA,-99.99,VWS Version 10.39,2013-04-25 03:30:00,
2013-04-24 20:35:00,58.2,52.1,29.96,SW,214,0.0,1.0,80,0.01,NA,NA,-99.99,VWS Version 10.39,2013-04-25 03:35:00,
2013-04-24 20:40:00,58.1,52.0,29.96,SW,214,0.0,1.0,80,0.01,NA,NA,-99.99,VWS Version 10.39,2013-04-25 03:40:00,
2013-04-24 20:45:00,58.0,51.9,29.97,SW,214,1.0,1.0,80,0.01,NA,NA,-99.99,VWS Version 10.39,2013-04-25 03:45:00,
2013-04-24 20:50:00,58.0,51.9,29.96,SSW,200,1.0,2.0,80,0.01,NA,NA,-99.99,VWS Version 10.39,2013-04-25 03:50:00,
2013-04-24 20:55:00,58.1,52.3,29.97,South,186,0.0,0.0,81,0.01,NA,NA,-99.99,VWS Version 10.39,2013-04-25 03:55:00,
2013-04-24 21:00:00,58.1,52.0,29.97,South,186,0.0,0.0,80,0.01,NA,NA,-99.99,VWS Version 10.39,2013-04-25 04:00:00,
2013-04-24 21:05:00,58.2,52.4,29.97,South,186,0.0,2.0,81,0.01,NA,NA,-99.99,VWS Version 10.39,2013-04-25 04:05:00,
2013-04-24 21:10:00,58.2,52.4,29.97,South,175,0.0,1.0,81,0.00,NA,NA,-99.99,VWS Version 10.39,2013-04-25 04:10:00,
2013-04-24 21:15:00,58.2,52.1,29.97,South,180,0.0,0.0,80,0.00,NA,NA,-99.99,VWS Version 10.39,2013-04-25 04:15:00,
2013-04-24 21:20:00,58.1,52.0,29.97,South,180,0.0,0.0,80,0.00,NA,NA,-99.99,VWS Version 10.39,2013-04-25 04:20:00,
2013-04-24 21:25:00,58.2,52.1,29.98,South,180,0.0,1.0,80,0.00,NA,NA,-99.99,VWS Version 10.39,2013-04-25 04:25:00,
2013-04-24 21:30:00,58.2,52.1,29.98,South,180,0.0,0.0,80,0.00,NA,NA,-99.99,VWS Version 10.39,2013-04-25 04:30:00,
2013-04-24 21:35:00,58.1,52.0,29.98,South,180,0.0,0.0,80,0.00,NA,NA,-99.99,VWS Version 10.39,2013-04-25 04:35:00,
2013-04-24 21:40:00,58.1,51.6,29.98,South,180,0.0,0.0,79,0.00,NA,NA,-99.99,VWS Version 10.39,2013-04-25 04:40:00,
2013-04-24 21:45:00,58.0,51.5,29.98,South,180,0.0,0.0,79,0.00,NA,NA,-99.99,VWS Version 10.39,2013-04-25 04:45:00,
2013-04-24 21:50:00,58.1,51.6,29.98,South,180,0.0,0.0,79,0.00,NA,NA,-99.99,VWS Version 10.39,2013-04-25 04:50:00,
2013-04-24 21:55:00,58.1,52.0,29.98,South,180,0.0,0.0,80,0.00,NA,NA,-99.99,VWS Version 10.39,2013-04-25 04:55:00,
2013-04-24 22:00:00,58.1,52.0,29.98,South,180,1.0,1.0,80,0.00,NA,NA,-99.99,VWS Version 10.39,2013-04-25 05:00:00,
2013-04-24 22:05:00,58.1,52.0,29.98,South,180,0.0,0.0,80,0.00,NA,NA,-99.99,VWS Version 10.39,2013-04-25 05:05:00,
2013-04-24 22:10:00,58.1,52.3,29.98,South,175,1.0,1.0,81,0.00,NA,NA,-99.99,VWS Version 10.39,2013-04-25 05:10:00,
2013-04-24 22:15:00,58.2,52.4,29.99,South,175,0.0,1.0,81,0.00,NA,NA,-99.99,VWS Version 10.39,2013-04-25 05:15:00,
2013-04-24 22:20:00,58.2,52.4,29.99,South,175,0.0,1.0,81,0.00,NA,NA,-99.99,VWS Version 10.39,2013-04-25 05:20:00,
2013-04-24 22:25:00,58.2,52.7,29.99,SSE,159,1.0,1.0,82,0.00,NA,NA,-99.99,VWS Version 10.39,2013-04-25 05:25:00,
2013-04-24 22:30:00,58.1,53.0,29.99,SSE,159,0.0,1.0,83,0.00,NA,NA,-99.99,VWS Version 10.39,2013-04-25 05:30:00,
2013-04-24 22:35:00,58.0,53.2,29.99,SSE,157,1.0,2.0,84,0.00,NA,NA,-99.99,VWS Version 10.39,2013-04-25 05:35:00,
2013-04-24 22:40:00,57.9,53.1,29.99,SSE,154,0.0,2.0,84,0.00,NA,NA,-99.99,VWS Version 10.39,2013-04-25 05:40:00,
2013-04-24 22:45:00,57.8,53.3,29.99,SE,146,1.0,1.0,85,0.00,NA,NA,-99.99,VWS Version 10.39,2013-04-25 05:45:00,
2013-04-24 22:50:00,57.8,53.3,29.99,SE,137,0.0,1.0,85,0.00,NA,NA,-99.99,VWS Version 10.39,2013-04-25 05:50:00,
2013-04-24 22:55:00,57.7,53.2,29.98,SE,137,0.0,1.0,85,0.00,NA,NA,-99.99,VWS Version 10.39,2013-04-25 05:55:00,
2013-04-24 23:00:00,57.6,53.1,29.99,SE,137,1.0,1.0,85,0.00,NA,NA,-99.99,VWS Version 10.39,2013-04-25 06:00:00,
2013-04-24 23:05:00,57.5,53.0,29.99,SE,137,1.0,1.0,85,0.00,NA,NA,-99.99,VWS Version 10.39,2013-04-25 06:05:00,
2013-04-24 23:10:00,57.5,53.0,29.99,SE,137,1.0,1.0,85,0.00,NA,NA,-99.99,VWS Version 10.39,2013-04-25 06:10:00,
2013-04-24 23:15:00,57.4,52.9,29.99,SE,137,2.0,2.0,85,0.00,NA,NA,-99.99,VWS Version 10.39,2013-04-25 06:15:00,
2013-04-24 23:20:00,57.4,53.2,29.99,ESE,110,1.0,2.0,86,0.00,NA,NA,-99.99,VWS Version 10.39,2013-04-25 06:20:00,
2013-04-24 23:25:00,57.3,53.2,29.99,East,96,1.0,2.0,86,0.00,NA,NA,-99.99,VWS Version 10.39,2013-04-25 06:25:00,
2013-04-24 23:30:00,57.3,52.8,29.99,East,96,0.0,1.0,85,0.00,NA,NA,-99.99,VWS Version 10.39,2013-04-25 06:30:00,
2013-04-24 23:35:00,57.3,52.8,29.99,East,96,1.0,1.0,85,0.00,NA,NA,-99.99,VWS Version 10.39,2013-04-25 06:35:00,
2013-04-24 23:40:00,57.3,52.8,29.99,East,96,0.0,1.0,85,0.00,NA,NA,-99.99,VWS Version 10.39,2013-04-25 06:40:00,
2013-04-24 23:45:00,57.4,52.9,29.99,East,96,1.0,1.0,85,0.00,NA,NA,-99.99,VWS Version 10.39,2013-04-25 06:45:00,
2013-04-24 23:50:00,57.5,53.3,29.98,East,96,1.0,1.0,86,0.00,NA,NA,-99.99,VWS Version 10.39,2013-04-25 06:50:00,
2013-04-24 23:55:00,57.4,52.9,29.98,East,94,1.0,1.0,85,0.00,NA,NA,-99.99,VWS Version 10.39,2013-04-25 06:55:00,